Location: Cambrai
(50.1772°N, 3.2338°E)
Time: 16:17:42
(UTC+00:00)

Daily predictions for brighter satellites

Satellite Brightness Start Highest point End
(mag) Time Altitude Azimuth Time Altitude Azimuth Time Altitude Azimuth
Cosmos 1802 Rocket 4.3 17:27:31 10° NNW 17:33:57 81° W 17:40:23 10° S
Cosmos 2285 Rocket 4.1 17:29:55 10° NNW 17:36:17 58° ENE 17:42:35 10° SE
Cosmos 2233 Rocket 4.0 17:30:34 10° N 17:36:51 71° ENE 17:43:09 10° SSE
CZ-4 R/B 4.3 17:33:44 10° SSE 17:37:40 64° ENE 17:41:36 10° N
USA 290 2.4 17:34:34 10° SSW 17:37:45 73° WNW 17:40:57 10° NNE
NOSS 0 Rocket 4.0 17:32:36 10° NNW 17:38:54 84° ENE 17:45:08 10° SSE
USA 306 4.0 17:37:46 10° W 17:40:22 25° SW 17:42:16 10° SSE
ARIANE 6 FM1 Upper Stage 4.1 17:38:50 10° NNW 17:41:54 21° NNE 17:44:57 10° ENE
NOSS 3-4 (A) 3.9 17:38:14 10° NW 17:44:38 58° NE 17:52:12 10° ESE
NOSS 3-4 (C) 3.9 17:38:30 10° NW 17:44:56 58° NE 17:52:29 10° ESE
Cosmos 1725 Rocket 4.3 17:39:22 10° NNW 17:45:37 74° W 17:51:52 10° S
Cosmos 2151 Rocket 3.7 17:44:51 10° N 17:49:23 85° W 17:53:53 10° S
Meteor 1-11 4.3 17:46:35 10° S 17:52:13 85° E 17:58:00 10° NNE
Radarsat Rocket 4.0 17:49:36 10° SE 17:55:23 63° ENE 18:01:43 10° NNW
Cosmos 1607 4.0 17:49:27 10° SW 17:55:36 85° NW 18:01:51 10° NE
Cosmos 1455 Rocket 3.4 17:52:55 10° N 17:57:00 40° ENE 18:01:03 10° SE
Cosmos 44 Rocket 4.3 17:55:12 10° S 17:59:19 27° ESE 18:03:10 12° ENE
YAOGAN 1 2.4 17:55:30 10° SSE 17:59:44 75° ENE 18:04:00 10° N
Cosmos 2228 3.9 17:56:18 10° NNE 17:59:50 26° ENE 18:03:22 10° SE
Cosmos 1975 Rocket 4.2 17:56:46 10° SE 18:00:02 21° E 18:03:18 10° NE
COSMO-SKYMED 1 2.8 17:56:30 10° NNE 18:00:27 42° E 18:04:21 10° S
PSLV R/B 3.6 17:56:36 10° SE 18:00:34 48° ENE 18:04:31 10° N
ATLAS 2AS CENTAUR R/B 4.0 17:54:56 10° W 18:01:00 31° NNW 18:06:59 10° NE
Cosmos 1782 4.0 17:59:06 10° NNE 18:01:38 18° ENE 18:03:12 14° E
Cosmos 2297 Rocket 2.4 17:56:38 10° S 18:02:04 50° ESE 18:07:31 10° NE
Lacrosse 5 rocket 2.0 18:00:06 10° W 18:03:23 37° NNW 18:06:24 12° NE
DNEPR-1 R/B 4.2 18:00:02 10° NNW 18:04:36 47° NE 18:09:59 10° ESE
SPOT 1/Viking Rocket 4.1 18:01:42 10° S 18:06:46 63° WSW 18:11:52 10° NNW
Cosmos 2061 Rocket 4.2 18:00:54 10° N 18:07:18 83° W 18:13:36 10° S
Aureole 3 Rocket 2.5 18:03:30 10° N 18:07:31 66° ENE 18:10:43 10° SSE
CZ-2D R/B 3.2 18:05:39 10° SSE 18:09:34 81° ENE 18:13:36 10° NNW
Okean 1 Rocket 3.3 18:07:59 10° NNW 18:12:23 75° W 18:16:44 10° S
SL-16 R/B 4.2 18:07:13 10° N 18:12:36 32° WNW 18:18:00 10° WSW
CZ-4C R/B 2.0 18:08:55 10° SW 18:13:15 72° NW 18:18:53 10° NE
Cosmos 1464 Rocket 4.3 18:10:40 10° N 18:16:47 46° ENE 18:22:49 10° SE
Okean 2 Rocket 3.8 18:13:18 10° NNW 18:17:38 58° W 18:21:54 10° S
Cosmos 2344 4.3 18:13:13 10° SSE 18:19:35 27° ESE 18:23:43 16° ENE
Cosmos 2221 Rocket 3.6 18:15:41 10° S 18:20:10 87° W 18:24:43 10° N
USA 267 3.4 18:15:08 12° ENE 18:21:17 73° NNW 18:27:48 10° WSW
SJ-6B 2.9 18:21:14 10° SE 18:24:27 39° ENE 18:27:42 10° N
Cosmos 1980 4.0 18:24:26 10° NNW 18:30:05 69° WSW 18:35:41 10° SSE
Cosmos 2263 Rocket 3.2 18:26:17 10° SSE 18:30:41 24° ESE 18:31:44 22° E
Cosmos 1025 Rocket 3.8 18:26:34 10° SSW 18:30:47 53° WNW 18:35:04 10° N
Cosmos 2237 Rocket 2.6 18:29:43 10° NNW 18:35:23 68° WSW 18:41:01 10° SSE
Meteor 1-31 Rocket 3.7 18:36:36 25° NE 18:36:36 25° NE 18:38:53 10° N
SKYMED 2 4.5 18:32:50 10° N 18:37:04 51° WNW 18:41:16 10° SW
Meteor 1-27 4.3 18:32:04 10° NNW 18:37:53 90° SSE 18:43:43 10° S
SeaSat 1 4.4 18:37:59 10° S 18:42:18 31° WSW 18:46:39 10° NW
Cosmos 1570 Rocket 3.9 18:38:05 10° SSW 18:43:22 82° ESE 18:48:39 10° NNE
Resurs 01 Rocket 1.6 18:39:23 10° SSE 18:43:46 85° WSW 18:48:13 10° NNW
SPOT 5 3.3 18:45:52 26° ESE 18:48:09 42° ENE 18:52:58 10° N
NOSS 3-3 (C) 4.2 18:44:51 10° WSW 18:50:11 63° NW 18:55:59 13° NE
DMSP B5D1-3 4.4 18:47:43 10° NNE 18:52:51 81° ESE 18:57:58 10° SSW
Tiangong 0.1 18:53:53 10° SSW 18:55:41 16° S 18:55:41 16° S
Cosmos 2227 Rocket 2.1 18:55:46 10° SSW 19:01:18 62° ESE 19:05:16 20° NE
SL-16 R/B 2.2 18:55:42 10° NNW 19:01:20 64° ENE 19:03:58 32° SE
Cosmos 773 Rocket 4.0 18:58:58 10° SSW 19:04:15 87° WNW 19:09:35 10° NNE
Cosmos 1346 Rocket 3.7 19:00:48 10° S 19:02:49 31° SSE 19:02:49 31° SSE
Cosmos 2208 Rocket 3.9 18:59:14 10° SSW 19:04:28 88° ESE 19:09:50 10° NNE
Tsikada Rocket 4.3 19:02:32 10° SSE 19:08:12 41° E 19:13:56 10° NNE
CZ-4 R/B 2.6 19:17:56 27° N 19:17:56 27° N 19:19:50 10° N
Okean O Rocket 4.0 19:20:31 12° NNE 19:20:31 12° NNE 19:20:54 10° NNE
ARIANE 6 FM1 Upper Stage 2.7 19:17:34 10° NW 19:21:05 64° N 19:21:05 64° N
CZ-4B R/B 3.4 19:26:08 47° NE 19:26:08 47° NE 19:30:46 10° N
Terra 3.2 19:30:49 26° NNE 19:30:49 26° NNE 19:33:10 10° N
Cosmos 1544 Rocket 3.5 19:25:19 10° NNW 19:29:41 82° W 19:30:03 73° SSW
Cosmos 1816 Rocket 4.5 19:24:09 10° SSW 19:30:18 82° W 19:36:35 10° N
CZ-4B DEB 4.0 19:29:06 53° SE 19:30:24 74° ENE 19:35:51 10° NNW
CSL-04 Debris 4.1 19:30:41 34° SSE 19:33:12 89° WSW 19:38:40 10° NNW
Cosmos 2034 Rocket 4.0 19:28:30 10° NNW 19:34:41 79° W 19:40:53 10° S
Cosmos 1782 3.9 19:33:10 10° NNW 19:36:31 38° W 19:37:19 33° SW
Cosmos 1975 Rocket 4.1 19:33:18 10° SSW 19:37:28 44° WNW 19:41:37 10° N
TSX-5 4.1 19:32:14 10° NNW 19:37:23 85° NW 19:37:23 85° NW
CSL-04 Rocket 3.6 19:35:11 30° S 19:37:51 77° WSW 19:43:10 10° NNW
RESURS DK-1 4.3 19:34:10 10° NNW 19:35:40 20° N 19:35:40 20° N
Cosmos 44 Rocket 3.8 19:35:30 10° SW 19:40:24 60° NW 19:41:49 43° N
Lacrosse 5 rocket 3.0 19:37:46 10° WNW 19:39:50 23° NNW 19:39:50 23° NNW
MOS 1 4.2 19:41:22 68° ENE 19:41:25 68° ENE 19:47:04 10° N
Cosmos 1634 Rocket 3.9 19:35:47 10° N 19:42:07 71° ENE 19:43:02 62° SE
Cosmos 2297 Rocket 3.6 19:41:06 10° WSW 19:46:17 36° NW 19:51:30 10° NNE
Cosmos 1943 3.5 19:43:37 10° NNW 19:48:32 54° NNE 19:48:32 54° NNE
ATLAS 2AS CENTAUR R/B 3.9 19:48:13 10° NW 19:53:56 27° N 19:55:21 25° NNE
BREEZE-M DEB (TANK) 3.8 19:38:36 10° W 19:55:39 67° S 19:56:30 61° SE
ERS-1 Rocket 3.8 20:02:09 43° N 20:02:09 43° N 20:05:29 10° NNW
CZ-4C R/B 3.8 19:58:16 10° WNW 20:02:31 27° NNW 20:04:22 23° NNE
BREEZE-M DEB (TANK) 4.3 19:58:08 10° SW 20:03:02 62° SE 20:04:47 54° ESE
Cosmos 972 Rocket 4.4 19:58:47 10° NNW 20:02:46 58° NW 20:02:46 58° NW
USA 267 3.8 20:02:29 43° NNE 20:03:54 50° N 20:10:10 10° WNW
Cosmos 2279 Rocket 4.2 19:58:20 10° N 20:03:21 57° NNE 20:03:21 57° NNE
Cosmos 2263 Rocket 2.5 20:08:25 10° SW 20:13:31 64° W 20:13:31 64° W
ADEOS 4.4 20:23:44 46° NW 20:23:44 46° NW 20:27:37 10° NNW
Cosmos 2344 3.5 20:25:34 10° SW 20:33:11 74° NW 20:33:48 70° N
SL-16 R/B 4.0 20:40:29 10° NW 20:44:59 25° WSW 20:45:52 24° WSW
Cosmos 2227 Rocket 3.8 20:40:48 10° WSW 20:45:45 30° NW 20:47:09 27° NNW
Terra 4.5 21:09:26 15° NW 21:09:26 15° NW 21:10:31 10° NNW
ATLAS 2AS CENTAUR R/B 4.4 21:39:49 10° NW 21:42:45 26° NNW 21:42:45 26° NNW
